Showing default

COSMOS 2587, 63290

Orbit data source: Space-Track

COSMOS 2587, 63290 is a payload satellite owned by VVKO VKS (CIS) in LEO that was launched on Sun, 16 Mar 2025 UTC via an ANGARA-1.2 launch vehicle from the Plesetsk Missile And Space Complex (PKMTR). Payload-class satellites include a variety of spacecraft equipped with specific instruments for various scientific and technological missions. These include communications satellites like Starlink; space stations such as the ISS; scientific satellites like the Hubble; Earth observation satellites from companies like Planet Labs, Umbra, and HawkEye 360; GPS; miniature CubeSats for education and research; and military/defense satellites.

Loading next visibility...
Identifier
63290, 2025-054C
Orbit
LEO
Last TLE update
12 hours ago
Origin
Manufacturer
Resehetnev ISS
Mission
Operational Defense Communications
Bus & Motor
STRELA-3M, Unknown motor
Mass
280 kg wet, 280 kg dry
Launch date (UTC)
2025-03-16 (4 months ago)
Launch vehicle
ANGARA-1.2
Launch site
Plesetsk Missile And Space Complex (PKMTR)
Object type
Payload
Rocket body
Debris
Shape & HBR
Cyl + 1 Ant, 7 m
Radar Cross Section
1.583 m², Large (>1 m²)

Expand to show TLE details & history

TLE from 12 hours ago
0 COSMOS 2587
1 63290U 25054C   25191.62093046  .00000028  00000-0  12690-3 0  9995
2 63290  82.4988 291.1766 0014857  41.4252 318.7951 12.42904819 14421
Epoch: 2025-07-10T14:54Z
TLE epoch observation values (Epoch: 2025-07-10T14:54:08.391Z)
Latitude
-0.00006°
Longitude
138.85704°
Altitude
1,488.219 km
Speed
7.124 km/s
True Right ascension
19h 24m 42s
True Declination
0° 00' 00"
Sunlit
Object was in full shadow at epoch
Visualization orbit readout
Latitude
29.75371°
Longitude
142.84806°
Altitude
1,486.365 km
Speed
7.128 km/s
Apparent Right ascension
22h 26m 23s
Apparent Declination
-1° 31' 28"
Sunlit
Object is in full shadow
Visualization observer readout
Local Sidereal Time
14:55:48
Azimuth
76.203° E
Elevation
-18.196°
Doppler factor
1
Orbital elements
Apogee altitude
1,503.357 km
Perigee altitude
1,479.972 km
Semi-major axis
7,869.802 km
Eccentricity
0.00149
Inclination
82.4988°
RAAN
291.1766°
Arg. of periapsis
41.4252°
True anomaly
Unknown
Mean anomaly
318.7951°
Eccentric anomaly
Unknown
Mean motion
3.10883 °/min
Orbital period
115.8 mins
BSTAR
0.0001269
Loading maneuver chart data...
Loading SW <> Apogee altitude chart data...
Loading historical data...
Loading historical data...
Loading historical data...
Loading historical data...
Loading historical data...
Loading historical data...
Loading historical data...
Other satellites on launch #54 in the year 2025 (2025-03-16 UTC)

COSMOS 2587 Visibility forecast

Observer location: undefined°, undefined°

Span
Click to sort rows by Start time (UTC) header in descending order
Start Az.
Max El. time (UTC)
Max El. Az.
Max El.
End time (UTC)
End Az.
14 mins2025-07-11 06:27:13.202Z151.116° SSE2025-07-11 06:34:13.202Z87.855° E33.879°2025-07-11 06:41:13.202Z23.761° NE
14 mins2025-07-11 08:24:13.202Z222.441° SW2025-07-11 08:31:13.202Z289.555° WNW33.28°2025-07-11 08:38:13.202Z352.003° N
10 mins2025-07-11 16:39:13.202Z27.506° NE2025-07-11 16:44:13.202Z66.88° ENE18.662°2025-07-11 16:49:13.202Z104.225° ESE
16 mins2025-07-11 18:34:13.202Z351.082° N2025-07-11 18:42:13.202Z208.464° SW44.725°2025-07-11 18:50:13.202Z177.311° S
7 mins2025-07-11 20:34:13.202Z306.078° NW2025-07-11 20:37:13.202Z283.585° WNW15.203°2025-07-11 20:41:13.202Z254.544° W
|